Time,TemperatureF,DewpointF,PressureIn,WindDirection,WindDirectionDegrees,WindSpeedMPH,WindSpeedGustMPH,Humidity,HourlyPrecipIn,Conditions,Clouds,dailyrainin,SolarRadiationWatts/m^2,SoftwareType,DateUTC
2013-06-19 00:02:00,63.0,43.0,-100.00,South,175,5.0,10.0,48,0.00,,,0.00,12.000000,,2013-06-19 08:02:00,
2013-06-19 00:11:00,63.0,43.0,-100.00,South,175,5.0,10.0,48,0.00,,,0.00,12.000000,,2013-06-19 08:11:00,
2013-06-19 00:22:00,63.0,43.0,-100.00,South,175,5.0,10.0,48,0.00,,,0.00,12.000000,,2013-06-19 08:22:00,
2013-06-19 00:53:00,62.0,42.0,-100.00,South,170,5.0,12.0,47,0.00,,,0.00,2.000000,,2013-06-19 08:53:00,
2013-06-19 01:02:00,62.0,42.0,-100.00,South,170,5.0,12.0,47,0.00,,,0.00,2.000000,,2013-06-19 09:02:00,
2013-06-19 01:11:00,62.0,42.0,-100.00,South,170,5.0,12.0,47,0.00,,,0.00,2.000000,,2013-06-19 09:11:00,
2013-06-19 01:22:00,62.0,42.0,-100.00,South,170,5.0,12.0,47,0.00,,,0.00,2.000000,,2013-06-19 09:22:00,
2013-06-19 01:53:00,62.0,42.0,-100.00,South,184,3.0,14.0,47,0.00,,,0.00,0.000000,,2013-06-19 09:53:00,
2013-06-19 02:01:00,62.0,42.0,-100.00,South,184,3.0,14.0,47,0.00,,,0.00,0.000000,,2013-06-19 10:01:00,
2013-06-19 02:11:00,62.0,42.0,-100.00,South,184,3.0,14.0,47,0.00,,,0.00,0.000000,,2013-06-19 10:11:00,
2013-06-19 02:22:00,62.0,42.0,-100.00,South,184,3.0,14.0,47,0.00,,,0.00,0.000000,,2013-06-19 10:22:00,
2013-06-19 02:53:00,58.0,42.0,-100.00,SSW,211,0.0,8.0,55,0.00,,,0.00,0.000000,,2013-06-19 10:53:00,
2013-06-19 03:02:00,58.0,42.0,-100.00,SSW,211,0.0,8.0,55,0.00,,,0.00,0.000000,,2013-06-19 11:02:00,
2013-06-19 03:11:00,58.0,42.0,-100.00,SSW,211,0.0,8.0,55,0.00,,,0.00,0.000000,,2013-06-19 11:11:00,
2013-06-19 03:22:00,58.0,42.0,-100.00,SSW,211,0.0,8.0,55,0.00,,,0.00,0.000000,,2013-06-19 11:22:00,
2013-06-19 03:54:00,55.0,45.0,-100.00,SSE,158,1.0,4.0,70,0.00,,,0.00,0.000000,,2013-06-19 11:54:00,
2013-06-19 04:01:00,55.0,45.0,-100.00,SSE,158,1.0,4.0,70,0.00,,,0.00,0.000000,,2013-06-19 12:01:00,
2013-06-19 04:11:00,55.0,45.0,-100.00,SSE,158,1.0,4.0,70,0.00,,,0.00,0.000000,,2013-06-19 12:11:00,
2013-06-19 04:22:00,55.0,45.0,-100.00,SSE,158,1.0,4.0,70,0.00,,,0.00,0.000000,,2013-06-19 12:22:00,
2013-06-19 05:22:00,51.0,44.0,-100.00,SSW,204,1.0,3.0,76,0.00,,,0.00,1.000000,,2013-06-19 13:22:00,
2013-06-19 05:54:00,46.0,43.0,-100.00,SE,139,1.0,3.0,90,0.00,,,0.00,8.000000,,2013-06-19 13:54:00,
2013-06-19 06:53:00,50.0,46.0,-100.00,South,191,3.0,7.0,85,-99.99,,,0.00,23.000000,,2013-06-19 14:53:00,
2013-06-19 07:01:00,50.0,46.0,-100.00,South,191,3.0,7.0,85,-99.99,,,0.00,23.000000,,2013-06-19 15:01:00,
2013-06-19 07:11:00,50.0,46.0,-100.00,South,191,3.0,7.0,85,-99.99,,,0.00,23.000000,,2013-06-19 15:11:00,
2013-06-19 07:22:00,50.0,46.0,-100.00,South,191,3.0,7.0,85,-99.99,,,0.00,23.000000,,2013-06-19 15:22:00,
2013-06-19 07:53:00,58.0,48.0,-100.00,SSE,168,3.0,7.0,69,0.00,,,0.00,115.000000,,2013-06-19 15:53:00,
2013-06-19 08:01:00,58.0,48.0,-100.00,SSE,168,3.0,7.0,69,0.00,,,0.00,115.000000,,2013-06-19 16:01:00,
2013-06-19 08:11:00,58.0,48.0,-100.00,SSE,168,3.0,7.0,69,0.00,,,0.00,115.000000,,2013-06-19 16:11:00,
2013-06-19 08:22:00,58.0,48.0,-100.00,SSE,168,3.0,7.0,69,0.00,,,0.00,115.000000,,2013-06-19 16:22:00,
2013-06-19 08:53:00,67.0,49.0,-100.00,East,99,1.0,6.0,53,0.00,,,0.00,338.000000,,2013-06-19 16:53:00,
2013-06-19 09:02:00,67.0,49.0,-100.00,East,99,1.0,6.0,53,0.00,,,0.00,338.000000,,2013-06-19 17:02:00,
2013-06-19 09:11:00,67.0,49.0,-100.00,East,99,1.0,6.0,53,0.00,,,0.00,338.000000,,2013-06-19 17:11:00,
2013-06-19 09:22:00,67.0,49.0,-100.00,East,99,1.0,6.0,53,0.00,,,0.00,338.000000,,2013-06-19 17:22:00,
2013-06-19 09:53:00,67.0,52.0,-100.00,SSE,167,1.0,4.0,59,0.00,,,-99.99,298.000000,,2013-06-19 17:53:00,
2013-06-19 10:01:00,67.0,52.0,-100.00,SSE,167,1.0,4.0,59,0.00,,,-99.99,298.000000,,2013-06-19 18:01:00,
2013-06-19 10:11:00,67.0,52.0,-100.00,SSE,167,1.0,4.0,59,0.00,,,-99.99,298.000000,,2013-06-19 18:11:00,
2013-06-19 10:23:00,67.0,52.0,-100.00,SSE,167,1.0,4.0,59,0.00,,,-99.99,298.000000,,2013-06-19 18:23:00,
2013-06-19 10:53:00,66.0,46.0,-100.00,WSW,258,2.0,8.0,48,0.00,,,0.00,401.000000,,2013-06-19 18:53:00,
2013-06-19 11:01:00,66.0,46.0,-100.00,WSW,258,2.0,8.0,48,0.00,,,0.00,401.000000,,2013-06-19 19:01:00,
2013-06-19 11:11:00,66.0,46.0,-100.00,WSW,258,2.0,8.0,48,0.00,,,0.00,401.000000,,2013-06-19 19:11:00,
2013-06-19 11:22:00,66.0,46.0,-100.00,WSW,258,2.0,8.0,48,0.00,,,0.00,401.000000,,2013-06-19 19:22:00,
2013-06-19 11:53:00,68.0,51.0,-100.00,West,270,2.0,4.0,54,0.00,,,0.00,276.000000,,2013-06-19 19:53:00,
2013-06-19 12:02:00,68.0,51.0,-100.00,West,270,2.0,4.0,54,0.00,,,0.00,276.000000,,2013-06-19 20:02:00,
2013-06-19 12:11:00,68.0,51.0,-100.00,West,270,2.0,4.0,54,0.00,,,0.00,276.000000,,2013-06-19 20:11:00,
2013-06-19 12:22:00,68.0,51.0,-100.00,West,270,2.0,4.0,54,0.00,,,0.00,276.000000,,2013-06-19 20:22:00,
2013-06-19 12:52:00,68.0,45.0,-100.00,SE,144,3.0,8.0,44,0.00,,,0.00,351.000000,,2013-06-19 20:52:00,
2013-06-19 13:02:00,68.0,45.0,-100.00,SE,144,3.0,8.0,44,0.00,,,0.00,351.000000,,2013-06-19 21:02:00,
2013-06-19 13:11:00,68.0,45.0,-100.00,SE,144,3.0,8.0,44,0.00,,,0.00,351.000000,,2013-06-19 21:11:00,
2013-06-19 13:22:00,68.0,45.0,-100.00,SE,144,3.0,8.0,44,0.00,,,0.00,351.000000,,2013-06-19 21:22:00,
2013-06-19 13:52:00,71.0,43.0,-100.00,SSW,200,2.0,10.0,37,0.00,,,0.00,238.000000,,2013-06-19 21:52:00,
2013-06-19 14:01:00,71.0,43.0,-100.00,SSW,200,2.0,10.0,37,0.00,,,0.00,238.000000,,2013-06-19 22:01:00,
2013-06-19 14:11:00,71.0,43.0,-100.00,SSW,200,2.0,10.0,37,0.00,,,0.00,238.000000,,2013-06-19 22:11:00,
2013-06-19 14:22:00,71.0,43.0,-100.00,SSW,200,2.0,10.0,37,0.00,,,0.00,238.000000,,2013-06-19 22:22:00,
2013-06-19 14:53:00,70.0,42.0,-100.00,SSE,164,7.0,14.0,36,0.00,,,0.00,274.000000,,2013-06-19 22:53:00,
2013-06-19 15:02:00,70.0,42.0,-100.00,SSE,164,7.0,14.0,36,0.00,,,0.00,274.000000,,2013-06-19 23:02:00,
2013-06-19 15:12:00,70.0,42.0,-100.00,SSE,164,7.0,14.0,36,0.00,,,0.00,274.000000,,2013-06-19 23:12:00,
2013-06-19 15:22:00,70.0,42.0,-100.00,SSE,164,7.0,14.0,36,0.00,,,0.00,274.000000,,2013-06-19 23:22:00,
2013-06-19 15:52:00,76.0,46.0,-100.00,NE,37,3.0,13.0,35,0.00,,,0.00,583.000000,,2013-06-19 23:52:00,
2013-06-19 16:01:00,76.0,46.0,-100.00,NE,37,3.0,13.0,35,0.00,,,0.00,583.000000,,2013-06-20 00:01:00,
2013-06-19 16:11:00,76.0,46.0,-100.00,NE,37,3.0,13.0,35,0.00,,,0.00,583.000000,,2013-06-20 00:11:00,
2013-06-19 16:22:00,76.0,46.0,-100.00,NE,37,3.0,13.0,35,0.00,,,0.00,583.000000,,2013-06-20 00:22:00,
2013-06-19 16:52:00,77.0,46.0,-100.00,SSE,155,6.0,10.0,33,0.00,,,0.00,640.000000,,2013-06-20 00:52:00,
2013-06-19 17:02:00,77.0,46.0,-100.00,SSE,155,6.0,10.0,33,0.00,,,0.00,640.000000,,2013-06-20 01:02:00,
2013-06-19 17:11:00,77.0,46.0,-100.00,SSE,155,6.0,10.0,33,0.00,,,0.00,640.000000,,2013-06-20 01:11:00,
2013-06-19 17:22:00,77.0,46.0,-100.00,SSE,155,6.0,10.0,33,0.00,,,0.00,640.000000,,2013-06-20 01:22:00,
2013-06-19 17:52:00,76.0,43.0,-100.00,SW,221,3.0,12.0,31,0.00,,,0.00,561.000000,,2013-06-20 01:52:00,
2013-06-19 18:02:00,76.0,43.0,-100.00,SW,221,3.0,12.0,31,0.00,,,0.00,561.000000,,2013-06-20 02:02:00,
2013-06-19 18:11:00,76.0,43.0,-100.00,SW,221,3.0,12.0,31,0.00,,,0.00,561.000000,,2013-06-20 02:11:00,
2013-06-19 18:24:00,76.0,43.0,-100.00,SW,221,3.0,12.0,31,0.00,,,0.00,561.000000,,2013-06-20 02:24:00,
2013-06-19 18:52:00,74.0,42.0,-100.00,SW,223,5.0,10.0,32,0.00,,,0.00,311.000000,,2013-06-20 02:52:00,
2013-06-19 19:02:00,74.0,42.0,-100.00,SW,223,5.0,10.0,32,0.00,,,0.00,311.000000,,2013-06-20 03:02:00,
2013-06-19 19:11:00,74.0,42.0,-100.00,SW,223,5.0,10.0,32,0.00,,,0.00,311.000000,,2013-06-20 03:11:00,
2013-06-19 19:22:00,74.0,42.0,-100.00,SW,223,5.0,10.0,32,0.00,,,0.00,311.000000,,2013-06-20 03:22:00,
2013-06-19 19:54:00,75.0,43.0,-100.00,WNW,284,4.0,9.0,32,0.00,,,0.00,364.000000,,2013-06-20 03:54:00,
2013-06-19 20:01:00,75.0,43.0,-100.00,WNW,284,4.0,9.0,32,0.00,,,0.00,364.000000,,2013-06-20 04:01:00,
2013-06-19 20:11:00,75.0,43.0,-100.00,WNW,284,4.0,9.0,32,0.00,,,0.00,364.000000,,2013-06-20 04:11:00,
2013-06-19 20:22:00,75.0,43.0,-100.00,WNW,284,4.0,9.0,32,0.00,,,0.00,364.000000,,2013-06-20 04:22:00,
2013-06-19 20:54:00,74.0,43.0,-100.00,SW,224,5.0,12.0,33,0.00,,,0.00,206.000000,,2013-06-20 04:54:00,
2013-06-19 21:01:00,74.0,43.0,-100.00,SW,224,5.0,12.0,33,0.00,,,0.00,206.000000,,2013-06-20 05:01:00,
2013-06-19 21:12:00,74.0,43.0,-100.00,SW,224,5.0,12.0,33,0.00,,,0.00,206.000000,,2013-06-20 05:12:00,
2013-06-19 21:22:00,74.0,43.0,-100.00,SW,224,5.0,12.0,33,0.00,,,0.00,206.000000,,2013-06-20 05:22:00,
2013-06-19 21:53:00,68.0,39.0,-100.00,SE,127,3.0,10.0,34,0.00,,,0.00,133.000000,,2013-06-20 05:53:00,
2013-06-19 22:01:00,68.0,39.0,-100.00,SE,127,3.0,10.0,34,0.00,,,0.00,133.000000,,2013-06-20 06:01:00,
2013-06-19 22:11:00,68.0,39.0,-100.00,SE,127,3.0,10.0,34,0.00,,,0.00,133.000000,,2013-06-20 06:11:00,
2013-06-19 22:22:00,68.0,39.0,-100.00,SE,127,3.0,10.0,34,0.00,,,0.00,133.000000,,2013-06-20 06:22:00,
2013-06-19 22:53:00,63.0,42.0,-100.00,SE,127,2.0,10.0,46,0.00,,,0.00,22.000000,,2013-06-20 06:53:00,
2013-06-19 23:01:00,63.0,42.0,-100.00,SE,127,2.0,10.0,46,0.00,,,0.00,22.000000,,2013-06-20 07:01:00,
2013-06-19 23:12:00,63.0,42.0,-100.00,SE,127,2.0,10.0,46,0.00,,,0.00,22.000000,,2013-06-20 07:12:00,
2013-06-19 23:22:00,63.0,42.0,-100.00,SE,127,2.0,10.0,46,0.00,,,0.00,22.000000,,2013-06-20 07:22:00,